STARLINK-11552, 62907

Orbit data source: Space-Track

STARLINK-11552, 62907 is a payload satellite owned by SpaceX/Seattle (US) in LEO that was launched on Sat, 08 Feb 2025 UTC via an FALCON 9 launch vehicle from the Air Force Eastern Test Range (AFETR). Payload-class satellites include a variety of spacecraft equipped with specific instruments for various scientific and technological missions. These include communications satellites like Starlink; space stations such as the ISS; scientific satellites like the Hubble; Earth observation satellites from companies like Planet Labs, Umbra, and HawkEye 360; GPS; miniature CubeSats for education and research; and military/defense satellites.

Loading next visibility...
Identifier
62907, 2025-027A
Orbit
LEO
Country
Flag of USUS
Related business
Manufacturer
SpaceX/Seattle
Mission
Operational Commercial Communications
Bus & Motor
STARLINK V2MD, Unknown motor
Mass
960 kg wet, ~910 kg dry
Launch date (UTC)
2025-02-08 (8 months ago)
Launch vehicle
FALCON 9
Launch site
Air Force Eastern Test Range (AFETR)
Object type
Payload
Rocket body
Debris
Shape & HBR
Box + 2 Pan, 18.1 m
Radar Cross Section
36.964 m², Large (>1 m²)

Expand to show TLE details & history
Last TLE update: 1 day ago

TLE from 1 day ago
0 STARLINK-11552
1 62907U 25027A   25291.98038446  .00307696  00000-0  23002-2 0  9991
2 62907  42.9987 121.9592 0002305 250.6170 109.4448 15.70979716 40900
Epoch: 2025-10-18T23:31Z
TLE epoch observation values (Epoch: 2025-10-18T23:31:45.217Z)
Latitude
-0.00005°
Longitude
101.31712°
Altitude
356.384 km
Speed
7.697 km/s
True Right ascension
08h 07m 50s
True Declination
0° 00' 00"
Sunlit
Object was in daylight at epoch
Visualization orbit readout
Latitude
Unknown
Longitude
Unknown
Altitude
Unknown
Speed
Unknown
Apparent Right ascension
Unknown
Apparent Declination
Unknown
Sunlit
N/A
Visualization observer readout
Local Sidereal Time
21:46:47
Azimuth
Unknown
Elevation
Unknown
Doppler factor
Unknown
Orbital elements
Apogee altitude
359.63 km
Perigee altitude
356.525 km
Semi-major axis
6,736.215 km
Eccentricity
0.00023
Inclination
42.9987°
RAAN
121.9592°
Arg. of periapsis
250.617°
True anomaly
109.4697°
Mean anomaly
109.4448°
Eccentric anomaly
109.45725°
Mean motion
3.92572 °/min
Orbital period
91.7 mins
BSTAR
0.0023002
Loading maneuver chart data...
Computing Atmospheric mass density...
Loading historical data...
Loading historical data...
Loading historical data...
Loading historical data...
Loading historical data...
Loading historical data...
Loading historical data...

Documentation

Showing up to 5 results
|